Location: Aldenham
(51.6667°N, 0.3500°W)
Time: 17:14:16
(UTC+00:00)

Timation 2 Rocket - Pass Details

Date: 18 November 2025
Orbit: 904 x 1074 km, 70.0° (Epoch: 09 December)

Event Time Altitude Azimuth Distance (km) Brightness Sun altitude
Rises 17:22:07 0° 196° (SSW) 3,845 7.6 -11.4°
Reaches altitude 10° 17:24:45 10° 193° (SSW) 2,901 6.9 -11.8°
Maximum altitude 17:31:29 62° 115° (ESE) 1,202 4.3 -12.8°
Drops below altitude 10° 17:38:12 10° 37° (NE) 2,893 6.0 -13.8°
Enters shadow 17:38:21 - 37° (NE) 2,951 6.1 -13.8°
